Weather History for Staunton, VA

Change the Weather History Date:

Friday, May 4, 2012

  Actual Average Record
Temperature  
Mean Temperature 66 °F -  
Max Temperature 77 °F 72 °F 89 °F (2001)
Min Temperature 56 °F 47 °F 36 °F (2013)
Cooling Degree Days 2    
Growing Degree Days 16 (Base 50)    
Moisture  
Dew Point 60 °F    
Average Humidity 79    
Maximum Humidity 96    
Minimum Humidity 54    
Precipitation  
Precipitation 0.03 in - - ()
Sea Level Pressure  
Sea Level Pressure 30.03 in    
Wind  
Wind Speed 1 mph (South)    
Max Wind Speed 6 mph    
Max Gust Speed -    
Visibility 8 miles    
Events Thunderstorm    
Averages and records for this station are not official NWS values.
T = Trace of Precipitation, MM = Missing Value Source: NWS Daily Summary

Daily Weather History Graph

Daily Weather History Graph

Search for Another Location

Airport:

Trip Planner

Search our weather history database for the weather conditions in past years. The results will help you decide how hot, cold, wet, or windy it might be!

Date:

Astronomy

May. 04, 2012 Rise Set
Actual Time 6:14 AM EDT 8:10 PM EDT
Civil Twilight 5:46 AM EDT 8:39 PM EDT
Nautical Twilight 5:11 AM EDT 9:14 PM EDT
Astronomical Twilight 4:33 AM EDT 9:51 PM EDT
Moon 6:46 PM EDT (5/4) 4:53 AM EDT (5/4)
Length of Visible Light 14h 52m
Length of Day
13h 55m
Waxing Gibbous, 97% of the Moon is Illuminated
May 4
Waxing Gibbous
May 5
Full
May 12
Last Quarter
May 20
New
May 28
First Quarter

Hourly Weather History & Observations

Time (EDT) Temp. Dew Point Humidity Pressure Visibility Wind Dir Wind Speed Gust Speed Precip Events Conditions
12:15 AM 65.5 °F 63.5 °F 93% 30.10 in 7.0 mi Calm Calm - N/A   Clear
12:35 AM 65.1 °F 62.6 °F 92% 30.09 in 7.0 mi Calm Calm - N/A   Clear
12:55 AM 64.4 °F 62.4 °F 93% 30.09 in 4.0 mi Calm Calm - N/A   Clear
1:15 AM 63.5 °F 61.7 °F 94% 30.08 in 2.0 mi Calm Calm - N/A   Clear
1:35 AM 63.0 °F 61.3 °F 94% 30.08 in 2.5 mi Calm Calm - N/A   Clear
1:55 AM 61.7 °F 60.1 °F 94% 30.07 in 1.8 mi SW 4.6 mph - N/A   Mist
2:15 AM 62.4 °F 61.0 °F 95% 30.06 in 3.0 mi Calm Calm - N/A   Clear
2:35 AM 63.5 °F 62.1 °F 95% 30.05 in 4.0 mi Calm Calm - N/A   Clear
2:55 AM 62.1 °F 60.8 °F 96% 30.05 in 2.5 mi Calm Calm - N/A   Clear
3:15 AM 62.1 °F 60.6 °F 95% 30.05 in 4.0 mi Calm Calm - N/A   Clear
3:35 AM 62.1 °F 60.8 °F 96% 30.05 in 2.5 mi Calm Calm - N/A   Clear
3:55 AM 60.8 °F 59.4 °F 95% 30.05 in 1.5 mi Calm Calm - N/A   Mist
4:15 AM 61.0 °F 59.5 °F 95% 30.05 in 3.0 mi Calm Calm - N/A   Clear
4:35 AM 59.7 °F 58.5 °F 96% 30.04 in 3.0 mi Calm Calm - N/A   Clear
4:55 AM 59.9 °F 58.6 °F 96% 30.04 in 4.0 mi Calm Calm - N/A   Clear
5:15 AM 58.6 °F 57.4 °F 96% 30.04 in 0.8 mi Calm Calm - N/A   Mist
5:35 AM 58.5 °F 57.0 °F 95% 30.05 in 2.5 mi Calm Calm - N/A   Clear
5:55 AM 57.9 °F 56.5 °F 95% 30.05 in 1.2 mi Calm Calm - N/A   Scattered Clouds
6:15 AM 58.1 °F 56.8 °F 96% 30.05 in 2.0 mi Calm Calm - N/A   Clear
6:55 AM 56.8 °F 55.6 °F 96% 30.05 in 1.2 mi Calm Calm - N/A   Overcast
7:15 AM 59.0 °F 57.7 °F 96% 30.07 in 4.0 mi Calm Calm - N/A   Scattered Clouds
7:35 AM 61.7 °F 60.3 °F 95% 30.07 in 4.0 mi Calm Calm - N/A   Clear
7:55 AM 63.3 °F 61.2 °F 93% 30.08 in 7.0 mi Calm Calm - N/A   Clear
8:15 AM 64.2 °F 61.5 °F 91% 30.08 in 7.0 mi Calm Calm - N/A   Clear
8:35 AM 64.6 °F 61.5 °F 90% 30.08 in 7.0 mi Calm Calm - N/A   Clear
8:55 AM 64.9 °F 61.9 °F 90% 30.09 in 7.0 mi Calm Calm - N/A   Clear
9:15 AM 66.2 °F 61.7 °F 85% 30.09 in 10.0 mi Calm Calm - N/A Thunderstorm Clear
9:35 AM 66.2 °F 59.5 °F 79% 30.10 in 10.0 mi Calm Calm - N/A   Mostly Cloudy
9:55 AM 67.3 °F 59.5 °F 76% 30.09 in 10.0 mi Calm Calm - N/A Thunderstorm Mostly Cloudy
10:15 AM 67.3 °F 60.1 °F 78% 30.11 in 10.0 mi Calm Calm - N/A   Mostly Cloudy
10:35 AM 67.5 °F 60.4 °F 78% 30.10 in 10.0 mi Calm Calm - N/A   Overcast
10:55 AM 68.4 °F 60.3 °F 75% 30.10 in 10.0 mi Calm Calm - N/A   Mostly Cloudy
11:15 AM 69.8 °F 60.1 °F 71% 30.08 in 10.0 mi East 3.5 mph - N/A   Mostly Cloudy
11:35 AM 70.0 °F 59.0 °F 68% 30.07 in 10.0 mi Calm Calm - N/A   Scattered Clouds
11:55 AM 70.7 °F 60.6 °F 70% 30.08 in 10.0 mi South 3.5 mph - N/A   Clear
12:15 PM 71.4 °F 60.6 °F 69% 30.07 in 10.0 mi WSW 3.5 mph - N/A   Scattered Clouds
12:35 PM 71.8 °F 59.9 °F 66% 30.07 in 10.0 mi SSE 4.6 mph - N/A   Mostly Cloudy
12:55 PM 72.9 °F 59.2 °F 62% 30.06 in 10.0 mi Calm Calm - N/A   Mostly Cloudy
1:15 PM 74.3 °F 60.3 °F 61% 30.05 in 10.0 mi SSW 5.8 mph - N/A   Scattered Clouds
1:35 PM 74.5 °F 60.1 °F 61% 30.05 in 10.0 mi South 5.8 mph - N/A   Clear
1:55 PM 75.2 °F 60.3 °F 60% 30.05 in 10.0 mi SSE 4.6 mph - N/A   Scattered Clouds
2:15 PM 74.3 °F 60.6 °F 62% 30.04 in 10.0 mi SSE 3.5 mph - N/A   Clear
2:35 PM 74.1 °F 59.9 °F 61% 30.03 in 10.0 mi SE 4.6 mph - N/A   Clear
2:55 PM 74.3 °F 60.4 °F 62% 30.03 in 10.0 mi SSE 3.5 mph - N/A   Clear
3:15 PM 73.9 °F 60.3 °F 62% 30.02 in 10.0 mi SSE 5.8 mph - N/A   Clear
3:35 PM 73.9 °F 61.2 °F 64% 30.02 in 10.0 mi South 3.5 mph - N/A   Clear
3:55 PM 74.1 °F 61.9 °F 65% 30.00 in 10.0 mi Calm Calm - N/A   Scattered Clouds
4:15 PM 73.8 °F 62.1 °F 67% 30.00 in 10.0 mi Calm Calm - N/A   Mostly Cloudy
4:35 PM 73.9 °F 63.1 °F 69% 29.99 in 10.0 mi Calm Calm - N/A   Overcast
4:55 PM 75.2 °F 62.4 °F 64% 29.99 in 10.0 mi Calm Calm - N/A   Overcast
5:15 PM 75.6 °F 61.5 °F 62% 29.98 in 10.0 mi South 4.6 mph - N/A   Mostly Cloudy
5:35 PM 76.1 °F 61.5 °F 60% 29.97 in 10.0 mi South 4.6 mph - N/A   Mostly Cloudy
5:55 PM 76.3 °F 61.0 °F 59% 29.97 in 10.0 mi SW 5.8 mph - N/A   Scattered Clouds
6:15 PM 76.1 °F 59.9 °F 57% 29.96 in 10.0 mi South 3.5 mph - N/A   Mostly Cloudy
6:35 PM 77.4 °F 60.1 °F 55% 29.96 in 10.0 mi South 3.5 mph - N/A   Overcast
6:55 PM 77.0 °F 59.4 °F 54% 29.95 in 10.0 mi South 3.5 mph - N/A   Scattered Clouds
7:15 PM 77.4 °F 59.5 °F 54% 29.96 in 10.0 mi South 3.5 mph - N/A   Mostly Cloudy
7:35 PM 75.7 °F 61.5 °F 61% 29.96 in 10.0 mi SSE 3.5 mph - N/A   Mostly Cloudy
7:55 PM 74.3 °F 61.0 °F 63% 29.96 in 10.0 mi Calm Calm - N/A   Scattered Clouds
8:15 PM 72.1 °F 61.7 °F 70% 29.97 in 10.0 mi NE 3.5 mph - N/A   Mostly Cloudy
8:35 PM 73.0 °F 60.1 °F 64% 29.97 in 10.0 mi North 3.5 mph - N/A   Mostly Cloudy
8:55 PM 70.0 °F 61.0 °F 73% 29.96 in 10.0 mi Calm Calm - N/A   Overcast
9:15 PM 67.5 °F 62.1 °F 83% 29.97 in 10.0 mi Calm Calm - N/A   Overcast
9:35 PM 68.5 °F 61.9 °F 79% 29.97 in 10.0 mi Calm Calm - N/A   Mostly Cloudy
9:55 PM 68.0 °F 61.7 °F 80% 29.98 in 10.0 mi Calm Calm - N/A   Mostly Cloudy
10:15 PM 66.9 °F 61.5 °F 83% 29.98 in 10.0 mi Calm Calm - N/A   Overcast
10:35 PM 65.7 °F 61.3 °F 86% 29.97 in 10.0 mi Calm Calm - N/A   Scattered Clouds
10:55 PM 64.8 °F 61.0 °F 88% 29.96 in 10.0 mi Calm Calm - N/A   Clear
11:15 PM 62.8 °F 59.0 °F 87% 29.96 in 10.0 mi Calm Calm - N/A   Clear
11:35 PM 62.4 °F 59.9 °F 91% 29.96 in 10.0 mi Calm Calm - N/A   Clear
11:55 PM 61.5 °F 58.8 °F 91% 29.96 in 10.0 mi Calm Calm - N/A   Clear